Content
SEND FEEDBACK

Daily
Averages
Monthly
Summary
United States of America

TIJERAS, NEW MEXICO


Home > North America > United States > New Mexico
Elevation: 6517 feet     Latitude: 35 04N     Longitude: 106 23W

WEATHER
 
SELECT A DAY
Number of Records: 177,246;   Date Range: 1/1/95 - 10/20/14
 
SHARE

PRINT THIS DATA

[ ← Previous Day ]
WEATHER ALMANAC - FEBRUARY 13, 2013
[ Next Day → ]
[ °C ]   °F
Weather ElementAverageHighLow
Temperature35.9 °F48 °F (2:52 pm)19.9 °F (5:52 am)
Dewpoint11.4 °F17.1 °F (8:52 pm)8.1 °F (5:52 am)
Humidity38.3 %60 % (5:52 am)22 % (2:52 pm)
Barometer30.15 in30.23 in (6:52 am)30.04 in (3:52 pm)
Wind Speed10.7 mph19.6 mph (5:52 pm)
Wind Gust26.5 mph (4:52 pm)
Weather ElementAverage
Visibility10 mi
Wind DirectionWSW (260.9 °)

Weather ElementTotal
Precipitation---
Heating Degree Days31.1 (Base 65)
Averaged from 23 records on February 13, 2013
WEATHER CONDITIONS BREAKOUT
WIND DIRECTION BREAKOUT
WEATHER BY HOUR - FEBRUARY 13, 2013
[ °C ]   °F
Local TimeTemperatureDewpointHumidityBarometerVisibilityWind DirectionWind SpeedGust SpeedPrecipitationEventsConditions
1:52 AM27.0 °F10.0 °F49 %30.20 in10.0 miVariable3.5 mphClear
2:52 AM26.1 °F9.0 °F49 %30.19 in10.0 miNW (320°)4.6 mphClear
3:52 AM27.0 °F10.0 °F49 %30.19 in10.0 miNNW (340°)6.9 mphClear
4:52 AM23.0 °F9.0 °F55 %30.19 in10.0 miCalmClear
5:52 AM19.9 °F8.1 °F60 %30.22 in10.0 miSSE (160°)3.5 mphClear
6:52 AM21.9 °F8.1 °F55 %30.23 in10.0 miCalmClear
7:52 AM27.0 °F9.0 °F47 %30.22 in10.0 miNorth (360°)4.6 mphClear
8:52 AM30.9 °F10.0 °F42 %30.22 in10.0 miNorth (360°)10.4 mphClear
9:52 AM34.0 °F10.9 °F38 %30.21 in10.0 miNNW (340°)10.4 mphClear
10:52 AM37.0 °F9.0 °F31 %30.18 in10.0 miNorth (350°)12.7 mphClear
11:52 AM41.0 °F9.0 °F27 %30.14 in10.0 miNNW (340°)9.2 mphClear
12:52 PM44.1 °F10.0 °F25 %30.10 in10.0 miNW (310°)18.4 mph23.0 mphClear
1:52 PM46.9 °F10.9 °F23 %30.07 in10.0 miNNW (340°)15.0 mphPartly Cloudy
2:52 PM48.0 °F10.9 °F22 %30.05 in10.0 miNNW (340°)17.3 mph20.7 mphPartly Cloudy
3:52 PM48.0 °F12.0 °F24 %30.04 in10.0 miNNW (340°)16.1 mph21.9 mphPartly Cloudy
4:52 PM46.9 °F12.0 °F24 %30.06 in10.0 miNNW (340°)18.4 mph26.5 mphPartly Cloudy
5:52 PM44.1 °F12.0 °F27 %30.09 in10.0 miNNW (340°)19.6 mph23.0 mphPartly Cloudy
6:52 PM42.1 °F14.0 °F32 %30.13 in10.0 miNorth (350°)12.7 mph23.0 mphPartly Cloudy
7:52 PM39.9 °F14.0 °F35 %30.14 in10.0 miNorth (10°)13.8 mphClear
8:52 PM39.0 °F17.1 °F41 %30.14 in10.0 miNorth (350°)17.3 mphClear
9:52 PM37.9 °F16.0 °F41 %30.12 in10.0 miNorth (10°)11.5 mphClear
10:52 PM37.0 °F16.0 °F42 %30.13 in10.0 miNorth (350°)10.4 mphClear
11:52 PM37.0 °F16.0 °F42 %30.12 in10.0 miNorth (350°)9.2 mphClear
Hourly data recorded from KABQ, located miles away from Tijeras, New Mexico







STORIES FROM OUR PARTNERS